カタログに戻る

STARLINK-6122

運用中通信VLEO
NORAD 56128·PAYLOAD·🇺🇸 United States

打ち上げ Mar 29, 2023 から Cape Canaveral Space Force Station

Loading…

次のパス (今後24時間)

TLE

最新Source: CelesTrak SupGP

元期: Sep 15, 2026, 01:30 UTC

1 56128C 23046AM  26258.06298611  .00015712  00000+0  56925-3 0  2586
2 56128  43.0012 157.9018 0001164 270.4739 236.2687 15.27562263    13

AllMySatでSTARLINK-6122をリアルタイム追跡

Download on the App Store